Lid_Strength_Index
2 5 8 10 13 14 16 14 12 11 11 9 7 9 11 10 11 13 6 4 4 4 3 3 0 -1 -1 -2 -1 -1 -1 -1 -1 -1 -1 -1 -1 -1 -1 -1 -2 -2 -1 -2 -2 -2 -2 -2 -2
4 5 10 14 16 17 16 14 12 11 9 7 7 8 10 12 8 8 7 4 4 4 3 3 -0 -1 -1 -2 -1 -1 -1 -1 -1 -1 -1 -1 -1 -1 -1 -1 -1 -1 -2 -2 -2 -2 -2 -2 -2
5 8 11 15 18 18 16 13 11 9 7 9 10 8 9 10 8 8 6 4 3 4 3 3 -0 -1 -2 -1 -1 -1 -1 -1 -1 -1 -1 -1 -1 -1 -1 -1 -1 -1 -1 -2 -2 -2 -2 -2 -2
7 10 11 15 16 15 14 13 11 10 10 7 9 11 9 6 7 6 5 3 4 5 4 3 1 -0 -1 -2 -1 -1 -2 -1 -1 -1 -1 -1 -1 -1 -1 -2 -2 -2 -1 -1 -2 -2 -2 -2 -2
10 12 14 15 15 14 13 12 11 11 11 11 9 11 9 7 7 7 5 4 5 6 5 5 2 2 0 -1 -1 -0 -1 -1 -1 -1 -1 -1 -1 -1 -1 -2 -2 -1 -2 -2 -2 -2 -2 -2 -2
11 13 15 17 16 13 13 12 11 11 11 10 11 11 8 8 8 7 4 5 6 7 5 5 5 4 3 1 -0 -0 -0 -1 -1 -1 -0 -1 -1 -1 -1 -1 -1 -2 -2 -2 -2 -2 -2 -1 -2
12 15 16 16 16 14 12 11 12 12 12 11 10 12 9 9 9 5 5 6 6 7 6 7 6 6 5 3 1 1 1 -0 -0 -1 -1 -0 -1 -1 -1 -1 -2 -1 -1 -2 -2 -2 -2 -1 -0
13 14 15 15 15 14 12 12 11 11 12 10 10 13 12 8 8 6 6 8 8 7 7 7 7 7 6 5 2 2 1 1 0 0 -1 -1 -0 -1 -1 -1 -1 -1 -1 -2 -2 -1 -2 -0 1
12 15 16 15 14 14 13 13 12 11 12 11 10 11 9 9 8 9 9 9 9 8 8 7 8 7 6 5 3 3 2 2 1 1 0 0 -1 -1 -0 0 -0 -0 -1 -1 -1 -1 -1 0 1
13 15 15 14 14 15 14 14 13 13 14 13 11 10 10 10 10 10 11 10 10 10 9 8 8 7 6 4 5 4 3 2 1 2 1 -0 -0 -1 -0 2 1 -0 -0 -1 -1 -1 1 3 3
14 15 14 13 13 13 13 14 13 14 14 13 13 11 11 11 10 10 10 10 10 9 9 7 7 7 6 6 5 5 5 3 3 1 1 1 -0 -0 0 -0 1 0 1 -0 0 1 2 4 4
15 14 13 12 12 13 14 13 14 13 13 11 11 10 11 11 11 11 10 10 10 10 9 8 7 7 7 6 6 5 5 4 3 2 1 1 2 -0 0 -0 -0 0 0 0 1 2 3 4 4
14 14 12 12 13 13 12 13 14 14 12 11 11 10 10 11 11 10 10 9 10 9 9 8 8 8 7 7 7 6 6 5 4 2 1 1 2 1 0 0 0 0 -0 1 3 3 4 4 4
14 13 14 13 13 13 14 14 14 13 13 13 11 11 11 11 10 11 10 10 9 8 8 8 8 8 7 8 8 7 7 6 4 2 1 1 2 1 1 1 0 0 0 1 3 3 4 4 3
13 16 14 14 14 14 14 16 15 13 13 12 12 12 11 11 11 10 10 9 9 8 8 9 8 7 8 8 8 8 8 6 5 3 0 1 1 1 2 1 1 0 0 1 3 3 3 3 3
15 16 18 16 15 14 15 18 16 14 14 13 13 13 12 12 11 11 10 9 9 9 9 9 8 9 9 9 8 8 8 6 5 2 1 1 1 1 2 2 1 0 0 1 2 3 3 3 3
17 20 19 17 14 15 16 17 15 14 14 14 14 13 13 13 12 12 11 10 9 9 10 10 11 11 10 9 8 8 8 7 3 3 1 2 2 2 3 3 2 0 1 1 2 3 3 4 3
19 21 20 19 17 16 17 16 14 13 14 14 15 14 14 13 12 11 12 10 10 11 11 11 11 11 10 9 9 8 8 6 5 4 2 3 3 2 3 3 3 1 1 1 2 3 2 3 3
18 20 20 19 16 17 18 18 16 14 15 16 15 14 14 14 12 12 12 12 12 12 11 12 12 12 10 10 11 9 10 8 6 3 3 4 3 3 2 3 3 2 1 1 2 2 2 3 3
18 19 21 19 17 17 18 17 16 16 15 15 15 14 14 14 13 12 12 12 12 12 12 12 12 12 10 10 10 10 10 8 6 3 4 3 3 3 2 2 3 2 1 1 1 2 2 3 3
18 20 21 19 17 18 18 20 19 17 15 14 14 14 14 14 13 13 13 13 13 13 13 13 13 12 11 10 10 10 9 7 5 5 5 5 4 3 3 3 3 2 0 1 1 1 2 4 3
20 18 18 18 19 21 19 22 20 18 16 15 15 14 14 14 13 13 13 13 14 13 13 12 13 12 11 11 11 11 11 9 8 7 6 5 4 4 4 3 3 2 0 1 1 1 2 3 4
19 17 18 18 18 20 20 22 19 19 17 17 16 15 15 14 14 13 13 13 14 13 13 13 14 13 12 11 11 11 11 10 7 7 6 5 4 4 4 4 3 1 0 0 1 2 2 3 3
16 18 19 19 19 26 20 23 21 20 18 17 17 16 14 14 14 14 13 13 14 14 14 13 13 13 12 12 11 11 11 10 9 7 7 6 6 5 6 5 2 0 0 0 1 2 2 3 3
18 20 25 24 25 24 21 22 19 18 18 17 16 15 14 14 15 14 14 13 15 15 14 13 13 14 12 12 11 11 11 10 10 8 7 7 7 7 6 5 5 1 0 0 1 2 2 3 3
19 20 23 26 26 24 21 22 19 18 17 15 15 15 14 14 14 15 15 14 14 15 15 14 13 14 13 12 12 11 10 10 8 8 7 7 8 7 6 6 6 1 1 1 1 1 2 2 2
19 20 19 24 28 26 22 21 18 18 16 16 15 15 15 14 15 15 14 14 14 15 15 15 14 13 13 13 12 11 11 11 10 9 8 8 8 7 6 6 6 4 1 1 1 2 2 3 2
18 17 21 23 25 26 24 22 20 19 18 17 16 15 15 15 15 15 14 15 15 15 15 15 14 13 12 12 12 11 11 11 11 10 10 10 9 8 8 7 6 5 3 2 1 2 2 3 3
19 21 20 20 22 25 27 20 19 18 18 18 17 16 15 15 15 16 15 15 15 15 16 15 14 13 12 11 10 11 12 11 10 11 11 10 10 9 8 8 7 6 4 3 2 2 2 3 3
19 20 19 21 24 25 24 22 17 17 18 18 17 15 15 15 15 16 15 15 16 16 16 16 15 14 13 10 10 11 12 12 12 11 11 10 10 9 9 8 8 7 5 4 3 3 3 3 4